This is the latest recevied weather packets stored in our database for station/object G4GVZ-1. If no packets are shown the sender has not sent any weather packets the latest 10 day(s).
| Time | Temp. | Humidity | Pressure | Rain* | Wind** | Luminosity | Snow |
|---|---|---|---|---|---|---|---|
| 1777591849 | 13.33° C | 52% | 1019.1 hPa | 0 mm | - | - | - |
| 1777590949 | 13.33° C | 51% | 1019.2 hPa | 0 mm | - | - | - |
| 1777590048 | 13.89° C | 51% | 1019.3 hPa | 0 mm | - | - | - |
| 1777589149 | 13.89° C | 50% | 1019.4 hPa | 0 mm | - | - | - |
| 1777588248 | 13.89° C | 51% | 1019.6 hPa | 0 mm | - | - | - |
| 1777587350 | 13.89° C | 52% | 1019.7 hPa | 0 mm | - | - | - |
| 1777586450 | 14.44° C | 51% | 1019.7 hPa | 0 mm | - | - | - |
| 1777585550 | 14.44° C | 51% | 1019.6 hPa | 0 mm | - | - | - |
| 1777584649 | 14.44° C | 51% | 1019.6 hPa | 0 mm | - | - | - |
| 1777583749 | 14.44° C | 51% | 1019.5 hPa | 0 mm | - | - | - |
| 1777582849 | 15° C | 50% | 1019.1 hPa | 0 mm | - | - | - |
| 1777581949 | 15° C | 50% | 1018.9 hPa | 0 mm | - | - | - |
| 1777581049 | 15.56° C | 49% | 1018.9 hPa | 0 mm | - | - | - |
| 1777580148 | 16.11° C | 48% | 1018.7 hPa | 0 mm | - | - | - |
| 1777579250 | 16.67° C | 48% | 1018.7 hPa | 0 mm | - | - | - |
| 1777578350 | 16.67° C | 47% | 1018.7 hPa | 0 mm | - | - | - |
| 1777577450 | 17.78° C | 46% | 1018.7 hPa | 0 mm | - | - | - |
| 1777576550 | 18.33° C | 44% | 1018.7 hPa | 0 mm | - | - | - |
| 1777575651 | 18.89° C | 42% | 1018.5 hPa | 0 mm | - | - | - |
| 1777574750 | 19.44° C | 42% | 1018.4 hPa | 0 mm | - | - | - |
| 1777573850 | 20° C | 40% | 1018.3 hPa | 0 mm | - | - | - |
| 1777572949 | 20.56° C | 39% | 1018.3 hPa | 0 mm | - | - | - |
| 1777572051 | 20.56° C | 38% | 1018.3 hPa | 0 mm | - | - | - |
| 1777571150 | 21.11° C | 38% | 1018.3 hPa | 0 mm | - | - | - |
| 1777570250 | 21.67° C | 37% | 1018.1 hPa | 0 mm | - | - | - |
* Rain latest hour (hover to see other rain measurements)
** Current wind speed in m/s (hover to see current wind gust speed)